Location: Wells
(51.2093°N, 2.6446°W)
Time: 11:16:12
(UTC+01:00)

LilacSat-2 - Pass Details

Date: 21 March 2026
Orbit: 412 x 424 km, 97.5° (Epoch: 20 April)

Event Time Altitude Azimuth Distance (km) Brightness Sun altitude
Rises 19:12:45 0° 167° (SSE) 2,390 ? -8.2°
Reaches altitude 10° 19:14:45 10° 169° (S) 1,528 ? -8.5°
Maximum altitude 19:18:02 80° 256° (WSW) 444 ? -9.0°
Drops below altitude 10° 19:21:20 10° 344° (NNW) 1,539 ? -9.5°
Sets 19:23:21 0° 346° (NNW) 2,409 ? -9.8°
